sat.trackr.live / text

‹ back to catalog

SES-19

NORAD 55971 · 2023-038B

PAYLOAD ACTIVE UNKNOWN

§ Identity

Operator
Country
SES
Launch date
2023-03-17
Launch site
AFETR
Launch vehicle
Mass (kg)
RCS (m²)

Purposes: comms

External: N2YO · Heavens-Above · Gunter

§ Orbital elements

Epoch: 2026-05-25T03:10:18.780384Z

Period
1,436.11 min
Inclination
0.0197°
Eccentricity
0.0001640
Mean motion
1.00271149 rev/d
Perigee alt
35,779.9 km
Apogee alt
35,793.7 km
Semi-major
42,164.9 km
B*
0.0000e+0
RAAN
298.5177°
Arg perigee
120.1064°
Mean anomaly
96.7746°
Rev number
1,186

§ Raw data

SES-191 55971U 23038B   26145.13216181  .00000085  00000+0  00000+0 0  99952 55971   0.0197 298.5177 0001640 120.1064  96.7746  1.00271149 11860

JSON: /api/v1/satellites/55971 · /tle

For live sub-satellite position, see the globe view (requires WebGL).

§ Visibility from observer

Set your observer location to see the next 7 days of passes ≥ 10°. The values pass through the URL so the page stays shareable.

No JS? Fill the form by hand. The geolocation button needs JavaScript.